When you browse on this site, cookies collect data to enhance your experience and personalize the content and advertising you see.
Visit our Privacy Policy to learn more. By continuing to use the site, you agree to this use of cookies and data.
  • In Portugal
  • List of Countries
  • For 7 days
  • Water Temperature
  • Weather Map
  • Weather Widgets
  • user-avatar
    Login

    Hourly Weather Lleida

    Today, 14 November, Thursday

    Time Temperature Precipitation Wind Pressure Humidity
    00:00 +8°C° 0 mm 2 mps 739 mmHg 76%
    01:00 +8°C° 0 mm 2 mps 738 mmHg 76%
    02:00 +10°C° 0 mm 1 mps 737 mmHg 76%
    03:00 +10°C° 0 mm 1 mps 736 mmHg 76%
    04:00 +10°C° 0.2 mm 1 mps 735 mmHg 80%
    05:00 +10°C° 0.2 mm 1 mps 735 mmHg 83%
    06:00 +10°C° 0 mm 1 mps 734 mmHg 85%
    07:00 +10°C° 0.5 mm 2 mps 734 mmHg 85%
    08:00 +10°C° 0.5 mm 4 mps 734 mmHg 84%
    09:00 +9°C° 0.5 mm 5 mps 734 mmHg 84%
    10:00 +10°C° 0.1 mm 6 mps 734 mmHg 75%
    11:00 +10°C° 0.1 mm 7 mps 734 mmHg 66%
    12:00 +10°C° 0.1 mm 8 mps 733 mmHg 58%
    13:00 +10°C° 0 mm 8 mps 733 mmHg 55%
    14:00 +10°C° 0 mm 8 mps 732 mmHg 52%
    15:00 +10°C° 0 mm 8 mps 732 mmHg 49%
    16:00 +9°C° 0 mm 6 mps 732 mmHg 53%
    17:00 +8°C° 0 mm 5 mps 732 mmHg 58%
    18:00 +7°C° 0 mm 3 mps 733 mmHg 62%
    19:00 +7°C° 0 mm 3 mps 733 mmHg 64%
    20:00 +6°C° 0 mm 2 mps 733 mmHg 66%
    21:00 +7°C° 0 mm 1 mps 733 mmHg 67%
    22:00 +7°C° 0 mm 1 mps 733 mmHg 69%
    23:00 +5°C° 0 mm 2 mps 733 mmHg 71%

    Tomorrow, 15 November, Friday

    Time Temperature Precipitation Wind Pressure Humidity
    00:00 +5°C° 0 mm 2 mps 733 mmHg 73%
    01:00 +5°C° 0 mm 2 mps 733 mmHg 75%
    02:00 +4°C° 0 mm 2 mps 733 mmHg 77%
    03:00 +4°C° 0 mm 2 mps 734 mmHg 79%
    04:00 +4°C° 0 mm 2 mps 734 mmHg 80%
    05:00 +4°C° 0 mm 2 mps 734 mmHg 80%
    06:00 +3°C° 0 mm 2 mps 734 mmHg 81%
    07:00 +3°C° 0 mm 3 mps 734 mmHg 78%
    08:00 +4°C° 0 mm 3 mps 735 mmHg 74%
    09:00 +5°C° 0 mm 4 mps 735 mmHg 71%
    10:00 +6°C° 0 mm 4 mps 735 mmHg 69%
    11:00 +7°C° 0 mm 5 mps 735 mmHg 66%
    12:00 +8°C° 0 mm 5 mps 735 mmHg 64%
    13:00 +8°C° 0 mm 5 mps 735 mmHg 63%
    14:00 +8°C° 0 mm 5 mps 735 mmHg 63%
    15:00 +9°C° 0 mm 5 mps 734 mmHg 62%
    16:00 +8°C° 0 mm 4 mps 735 mmHg 67%
    17:00 +7°C° 0 mm 4 mps 735 mmHg 73%
    18:00 +7°C° 0 mm 3 mps 736 mmHg 78%
    19:00 +7°C° 0 mm 3 mps 737 mmHg 79%
    20:00 +5°C° 0 mm 3 mps 737 mmHg 80%
    21:00 +5°C° 0 mm 3 mps 738 mmHg 81%
    22:00 +5°C° 0 mm 2 mps 738 mmHg 83%
    23:00 +5°C° 0 mm 2 mps 738 mmHg 85%

    Day after tomorrow, 16 November, Saturday

    Time Temperature Precipitation Wind Pressure Humidity
    00:00 +4°C° 0 mm 2 mps 739 mmHg 88%
    01:00 +5°C° 0 mm 1 mps 739 mmHg 88%
    02:00 +5°C° 0 mm 1 mps 740 mmHg 88%
    03:00 +4°C° 0 mm 1 mps 740 mmHg 89%
    04:00 +4°C° 0 mm 1 mps 740 mmHg 88%
    05:00 +4°C° 0 mm 1 mps 741 mmHg 88%
    06:00 +3°C° 0 mm 1 mps 741 mmHg 88%
    07:00 +4°C° 0 mm 1 mps 741 mmHg 83%
    08:00 +5°C° 0 mm 1 mps 742 mmHg 77%
    09:00 +7°C° 0 mm 1 mps 743 mmHg 72%
    10:00 +8°C° 0 mm 1 mps 743 mmHg 67%
    11:00 +8°C° 0 mm 2 mps 743 mmHg 62%
    12:00 +9°C° 0 mm 2 mps 742 mmHg 57%
    13:00 +9°C° 0 mm 2 mps 742 mmHg 54%
    14:00 +10°C° 0 mm 3 mps 742 mmHg 51%
    15:00 +10°C° 0 mm 3 mps 741 mmHg 48%
    16:00 +9°C° 0 mm 3 mps 742 mmHg 53%
    17:00 +7°C° 0 mm 4 mps 742 mmHg 59%
    18:00 +6°C° 0 mm 4 mps 742 mmHg 64%
    19:00 +5°C° 0 mm 5 mps 742 mmHg 69%
    20:00 +5°C° 0 mm 5 mps 742 mmHg 74%
    21:00 +4°C° 0 mm 6 mps 742 mmHg 78%
    22:00 +4°C° 0 mm 6 mps 742 mmHg 79%
    23:00 +3°C° 0 mm 5 mps 742 mmHg 79%

    17 November, Sunday

    Time Temperature Precipitation Wind Pressure Humidity
    00:00 +3°C° 0 mm 5 mps 741 mmHg 80%
    01:00 +3°C° 0 mm 5 mps 741 mmHg 80%
    02:00 +3°C° 0 mm 5 mps 740 mmHg 79%
    03:00 +3°C° 0 mm 5 mps 740 mmHg 79%
    04:00 +3°C° 0 mm 5 mps 740 mmHg 78%
    05:00 +3°C° 0 mm 5 mps 739 mmHg 77%
    06:00 +3°C° 0 mm 5 mps 739 mmHg 77%
    07:00 +4°C° 0 mm 6 mps 740 mmHg 73%
    08:00 +5°C° 0 mm 6 mps 740 mmHg 70%
    09:00 +7°C° 0 mm 6 mps 740 mmHg 67%
    10:00 +8°C° 0 mm 6 mps 740 mmHg 63%
    11:00 +10°C° 0 mm 7 mps 740 mmHg 60%
    12:00 +11°C° 0 mm 7 mps 740 mmHg 56%
    13:00 +11°C° 0 mm 7 mps 739 mmHg 55%
    14:00 +11°C° 0 mm 7 mps 739 mmHg 54%
    15:00 +11°C° 0 mm 7 mps 739 mmHg 53%
    16:00 +10°C° 0 mm 7 mps 739 mmHg 57%
    17:00 +9°C° 0 mm 7 mps 740 mmHg 61%
    18:00 +8°C° 0 mm 7 mps 740 mmHg 65%
    19:00 +7°C° 0 mm 6 mps 740 mmHg 70%
    20:00 +7°C° 0 mm 5 mps 740 mmHg 75%
    21:00 +7°C° 0 mm 4 mps 740 mmHg 79%
    22:00 +6°C° 0 mm 4 mps 740 mmHg 81%
    23:00 +7°C° 0 mm 3 mps 740 mmHg 83%

    18 November, Monday

    Time Temperature Precipitation Wind Pressure Humidity
    00:00 +7°C° 0 mm 3 mps 740 mmHg 85%
    01:00 +7°C° 0 mm 3 mps 740 mmHg 85%
    02:00 +5°C° 0 mm 3 mps 740 mmHg 85%
    03:00 +6°C° 0 mm 2 mps 740 mmHg 85%
    04:00 +6°C° 0 mm 2 mps 741 mmHg 85%
    05:00 +6°C° 0 mm 2 mps 741 mmHg 86%
    06:00 +6°C° 0 mm 2 mps 741 mmHg 86%
    07:00 +7°C° 0 mm 2 mps 742 mmHg 83%
    08:00 +7°C° 0 mm 2 mps 742 mmHg 80%
    09:00 +8°C° 0 mm 2 mps 742 mmHg 77%
    10:00 +9°C° 0 mm 2 mps 742 mmHg 73%
    11:00 +10°C° 0 mm 2 mps 742 mmHg 68%
    12:00 +11°C° 0 mm 3 mps 742 mmHg 64%
    13:00 +11°C° 0 mm 3 mps 743 mmHg 62%
    14:00 +12°C° 0 mm 3 mps 743 mmHg 61%
    15:00 +12°C° 0 mm 3 mps 743 mmHg 59%
    16:00 +11°C° 0 mm 3 mps 743 mmHg 64%
    17:00 +9°C° 0 mm 3 mps 744 mmHg 69%
    18:00 +8°C° 0 mm 3 mps 745 mmHg 74%
    19:00 +8°C° 0 mm 3 mps 745 mmHg 76%
    20:00 +7°C° 0 mm 3 mps 746 mmHg 78%
    21:00 +7°C° 0 mm 2 mps 746 mmHg 81%
    22:00 +6°C° 0 mm 2 mps 746 mmHg 82%
    23:00 +6°C° 0 mm 2 mps 747 mmHg 83%

    19 November, Tuesday

    Time Temperature Precipitation Wind Pressure Humidity
    00:00 +6°C° 0 mm 1 mps 747 mmHg 85%
    01:00 +6°C° 0 mm 1 mps 747 mmHg 85%
    02:00 +6°C° 0 mm 1 mps 747 mmHg 85%
    03:00 +5°C° 0 mm 1 mps 747 mmHg 85%
    04:00 +5°C° 0 mm 1 mps 747 mmHg 84%
    05:00 +5°C° 0 mm 1 mps 747 mmHg 84%
    06:00 +3°C° 0 mm 0 mps 747 mmHg 84%
    07:00 +6°C° 0 mm 1 mps 747 mmHg 79%
    08:00 +7°C° 0 mm 1 mps 747 mmHg 75%
    09:00 +8°C° 0 mm 1 mps 748 mmHg 71%
    10:00 +9°C° 0 mm 1 mps 747 mmHg 66%
    11:00 +11°C° 0 mm 1 mps 747 mmHg 62%
    12:00 +12°C° 0 mm 1 mps 746 mmHg 57%
    13:00 +12°C° 0 mm 1 mps 746 mmHg 56%
    14:00 +13°C° 0 mm 1 mps 746 mmHg 55%
    15:00 +13°C° 0 mm 1 mps 745 mmHg 53%
    16:00 +12°C° 0 mm 1 mps 745 mmHg 57%
    17:00 +11°C° 0 mm 1 mps 745 mmHg 61%
    18:00 +10°C° 0 mm 1 mps 745 mmHg 65%
    19:00 +10°C° 0 mm 1 mps 745 mmHg 65%
    20:00 +10°C° 0 mm 1 mps 745 mmHg 65%
    21:00 +10°C° 0 mm 1 mps 745 mmHg 65%
    22:00 +10°C° 0 mm 1 mps 745 mmHg 66%
    23:00 +10°C° 0 mm 1 mps 745 mmHg 67%
    Show more